Location: *
(58.7167°N, 26.1833°E)
Time: 17:54:56
(UTC+00:00)

Cosmos 1975 Rocket - Pass Details

Date: 25 August 2019
Orbit: 605 x 633 km, 82.5° (Epoch: 14 September)

Event Time Altitude Azimuth Distance (km) Brightness Sun altitude
Rises 19:39:27 0° 343° (NNW) 2,915 7.9 -13.7°
Reaches altitude 10° 19:41:46 10° 336° (NNW) 2,009 7.0 -13.8°
Maximum altitude 19:45:56 40° 267° (W) 933 4.3 -14.2°
Drops below altitude 10° 19:50:05 10° 199° (SSW) 2,009 5.4 -14.5°
Enters shadow 19:50:28 - 197° (SSW) 2,156 5.5 -14.5°
